Location: ?
(35.4214°N, 139.3011°E)
Time: 21:22:41
(UTC+00:00)

Meteor 2-17 Rocket - Pass Details

Date: 28 October 2020
Orbit: 935 x 956 km, 82.5° (Epoch: 04 December)

Event Time Altitude Azimuth Distance (km) Brightness Sun altitude
Rises 09:43:47 0° 5° (N) 3,598 7.4 -23.3°
Reaches altitude 10° 09:46:37 10° 16° (NNE) 2,650 6.6 -23.9°
Enters shadow 09:47:28 14° 21° (NNE) 2,390 6.3 -24.1°
